GW4332 Weather Reports


time (UTC)temp
C
wind
direction
speed
KPH
gust
KPH
rain 1hr
cm
rain 24hr
cm
rain mn
cm
humidity
%
barometer
mb
20260906225030 17 116 1.6 9.7 0.00 0.00 0.00 70 1019.3
20260906224029 17 100 3.2 9.7 0.00 0.00 0.00 70 1019.4
20260906223030 17 124 3.2 11.3 0.00 0.00 0.00 70 1019.5
20260906222030 17 126 1.6 8.0 0.00 0.00 0.00 69 1019.5
20260906221030 17 182 0.0 9.7 0.00 0.00 0.00 69 1019.6
20260906220030 17 68 1.6 9.7 0.00 0.00 0.00 69 1019.7
20260906215030 17 113 3.2 12.9 0.00 0.00 0.00 69 1019.8
20260906214030 18 144 1.6 11.3 0.00 0.00 0.00 68 1019.8
20260906213030 18 126 1.6 9.7 0.00 0.00 0.00 68 1020.0
20260906212030 18 137 0.0 9.7 0.00 0.00 0.00 67 1019.9
20260906211030 18 111 1.6 11.3 0.00 0.00 0.00 67 1020.0
20260906210030 18 103 1.6 12.9 0.00 0.00 0.00 67 1020.0
20260906205030 18 61 1.6 14.5 0.00 0.00 0.00 67 1020.1
20260906204030 18 136 1.6 14.5 0.00 0.00 0.00 67 1020.2
20260906203030 18 64 1.6 14.5 0.00 0.00 0.00 66 1020.2
20260906202030 18 135 1.6 14.5 0.00 0.00 0.00 66 1020.4
20260906201030 18 110 3.2 12.9 0.00 0.00 0.00 66 1020.5
20260906200029 18 3 1.6 14.5 0.00 0.00 0.00 65 1020.5
20260906195029 19 259 0.0 16.1 0.00 0.00 0.00 65 1020.8
20260906194029 19 144 1.6 8.0 0.00 0.00 0.00 65 1020.9
20260906193030 19 179 0.0 9.7 0.00 0.00 0.00 64 1021.0
20260906192030 20 128 1.6 9.7 0.00 0.00 0.00 64 1021.2
20260906191030 20 84 3.2 11.3 0.00 0.00 0.00 63 1021.4
20260906190030 20 177 1.6 11.3 0.00 0.00 0.00 63 1021.2
20260906185030 20 137 1.6 9.7 0.00 0.00 0.00 62 1021.2
20260906184030 20 91 0.0 14.5 0.00 0.00 0.00 62 1021.4
20260906183030 21 107 3.2 9.7 0.00 0.00 0.00 61 1021.4
20260906182030 21 101 3.2 11.3 0.00 0.00 0.00 60 1021.3
20260906181029 21 98 1.6 6.4 0.00 0.00 0.00 58 1021.5
20260906180029 21 121 1.6 6.4 0.00 0.00 0.00 57 1021.6
20260906175030 21 109 1.6 9.7 0.00 0.00 0.00 56 1021.8
20260906174030 21 340 1.6 6.4 0.00 0.00 0.00 55 1021.9
20260906173030 21 112 3.2 9.7 0.00 0.00 0.00 55 1022.0
20260906172029 21 113 1.6 6.4 0.00 0.00 0.00 55 1022.2
20260906171029 21 123 1.6 6.4 0.00 0.00 0.00 55 1022.1
20260906170029 21 123 3.2 11.3 0.00 0.00 0.00 54 1022.2
20260906165030 21 126 3.2 11.3 0.00 0.00 0.00 53 1022.2
20260906164030 22 130 3.2 9.7 0.00 0.00 0.00 53 1022.3
20260906163031 22 123 3.2 9.7 0.00 0.00 0.00 53 1022.4
20260906162030 22 131 3.2 9.7 0.00 0.00 0.00 52 1022.5
20260906161029 22 154 3.2 12.9 0.00 0.00 0.00 52 1022.7
20260906160030 22 148 3.2 16.1 0.00 0.00 0.00 51 1022.8
20260906155030 22 194 4.8 14.5 0.00 0.00 0.00 53 1022.7
20260906154030 22 149 1.6 12.9 0.00 0.00 0.00 55 1022.7
20260906153030 22 137 3.2 16.1 0.00 0.00 0.00 54 1022.7
20260906152030 22 128 1.6 14.5 0.00 0.00 0.00 54 1022.7
20260906151029 22 116 4.8 12.9 0.00 0.00 0.00 54 1022.8
20260906150029 22 108 3.2 17.7 0.00 0.00 0.00 53 1022.7
20260906145030 22 89 3.2 17.7 0.00 0.00 0.00 55 1022.8
20260906144030 21 151 3.2 16.1 0.00 0.00 0.00 53 1022.9
20260906143030 21 105 1.6 16.1 0.00 0.00 0.00 56 1023.2
20260906142030 21 122 3.2 11.3 0.00 0.00 0.00 57 1023.4
20260906141029 21 151 3.2 8.0 0.00 0.00 0.00 56 1023.5
20260906140029 21 119 3.2 12.9 0.00 0.00 0.00 55 1023.4
20260906135029 21 136 3.2 11.3 0.00 0.00 0.00 54 1023.6
20260906134030 21 109 4.8 14.5 0.00 0.00 0.00 53 1023.8
20260906133030 21 154 3.2 12.9 0.00 0.00 0.00 53 1024.1
20260906132030 21 135 4.8 16.1 0.00 0.00 0.00 52 1024.3
20260906131030 21 170 4.8 19.3 0.00 0.00 0.00 52 1024.3
20260906130030 21 166 3.2 16.1 0.00 0.00 0.00 53 1024.4
20260906125030 21 146 4.8 20.9 0.00 0.00 0.00 52 1024.3
20260906124029 21 146 4.8 16.1 0.00 0.00 0.00 54 1024.5
20260906123029 21 151 4.8 16.1 0.00 0.00 0.00 54 1024.5
20260906122030 21 173 8.0 19.3 0.00 0.00 0.00 54 1024.5
20260906121030 21 154 6.4 17.7 0.00 0.00 0.00 57 1024.6
20260906120030 20 121 3.2 16.1 0.00 0.00 0.00 58 1024.6
20260906115030 20 121 3.2 16.1 0.00 0.00 0.00 59 1024.8
20260906114030 20 154 3.2 16.1 0.00 0.00 0.00 60 1024.9
20260906113031 20 117 6.4 20.9 0.00 0.00 0.00 60 1025.0
20260906112030 20 163 4.8 19.3 0.00 0.00 0.00 60 1025.0
20260906111030 20 139 6.4 17.7 0.00 0.00 0.00 62 1025.1
20260906110030 19 159 4.8 19.3 0.00 0.00 0.00 64 1025.1
20260906105030 19 187 3.2 16.1 0.00 0.00 0.00 66 1025.3
20260906104029 18 141 3.2 14.5 0.00 0.00 0.00 67 1025.4
20260906103030 18 121 3.2 12.9 0.00 0.00 0.00 68 1025.5
20260906102030 18 155 3.2 12.9 0.00 0.00 0.00 69 1025.6
20260906101030 18 203 3.2 14.5 0.00 0.00 0.00 71 1025.7
20260906100030 17 148 3.2 12.9 0.00 0.00 0.00 73 1025.8
20260906095030 17 162 3.2 17.7 0.00 0.00 0.00 75 1025.9
20260906094030 17 183 4.8 14.5 0.00 0.00 0.00 77 1026.1
20260906093030 17 184 3.2 9.7 0.00 0.00 0.00 78 1026.2
20260906092030 16 184 8.0 16.1 0.00 0.00 0.00 78 1026.3
20260906091030 16 166 4.8 14.5 0.00 0.00 0.00 78 1026.2
20260906090029 16 195 6.4 16.1 0.00 0.00 0.00 79 1026.2
20260906085030 16 175 4.8 12.9 0.00 0.00 0.00 80 1026.3
20260906084030 16 181 6.4 17.7 0.00 0.00 0.00 80 1026.2
20260906083030 15 192 6.4 14.5 0.00 0.00 0.00 81 1026.2
20260906082029 15 198 6.4 16.1 0.00 0.00 0.00 81 1026.3
20260906081030 15 184 6.4 14.5 0.00 0.00 0.00 82 1026.3
20260906080030 15 183 6.4 17.7 0.00 0.00 0.00 83 1026.4
20260906075030 15 187 8.0 17.7 0.00 0.00 0.00 84 1026.4
20260906074030 14 186 3.2 12.9 0.00 0.00 0.00 85 1026.2
20260906073030 14 139 3.2 8.0 0.00 0.00 0.00 85 1026.1
20260906072030 13 117 3.2 9.7 0.00 0.00 0.00 86 1026.1
20260906071030 13 120 3.2 9.7 0.00 0.00 0.00 87 1026.1
20260906070030 13 137 3.2 9.7 0.00 0.00 0.00 87 1026.0
20260906065029 13 122 3.2 9.7 0.00 0.00 0.00 88 1026.0
20260906064030 12 111 4.8 9.7 0.00 0.00 0.00 88 1026.1
20260906063030 12 117 3.2 6.4 0.00 0.00 0.00 88 1026.1
20260906062030 12 102 3.2 6.4 0.00 0.00 0.00 88 1026.1
20260906061029 12 108 3.2 9.7 0.00 0.00 0.00 88 1026.1
20260906060030 12 106 4.8 9.7 0.00 0.00 0.00 88 1026.0
20260906055030 12 110 3.2 9.7 0.00 0.00 0.00 88 1026.0
20260906054030 12 120 3.2 9.7 0.00 0.00 0.00 87 1025.9
20260906053030 12 103 4.8 9.7 0.00 0.00 0.00 87 1025.9
20260906052030 12 98 3.2 9.7 0.00 0.00 0.00 87 1025.8
20260906051030 12 101 4.8 9.7 0.00 0.00 0.00 87 1025.7
20260906050030 12 132 3.2 6.4 0.00 0.00 0.00 87 1025.7
20260906045030 12 107 4.8 9.7 0.00 0.00 0.00 87 1025.7
20260906044029 12 94 4.8 11.3 0.00 0.00 0.00 86 1025.7
20260906043030 12 94 4.8 11.3 0.00 0.00 0.00 87 1025.7
20260906042030 12 106 3.2 6.4 0.00 0.00 0.00 87 1025.7
20260906041030 12 120 3.2 6.4 0.00 0.00 0.00 86 1025.8
20260906040030 12 141 1.6 6.4 0.00 0.00 0.00 86 1025.8
20260906035029 12 123 3.2 6.4 0.00 0.00 0.00 86 1025.7
20260906034030 13 127 1.6 4.8 0.00 0.00 0.00 86 1025.8
20260906033030 13 126 1.6 4.8 0.00 0.00 0.00 86 1025.9
20260906032029 13 160 1.6 4.8 0.00 0.00 0.00 85 1026.0
20260906031030 13 191 3.2 6.4 0.00 0.00 0.00 85 1026.1
20260906030030 13 182 3.2 11.3 0.00 0.00 0.00 85 1026.3
20260906025030 13 173 1.6 6.4 0.00 0.00 0.00 85 1026.3
20260906024030 13 177 4.8 11.3 0.00 0.00 0.00 84 1026.3
20260906023030 13 181 6.4 14.5 0.00 0.00 0.00 84 1026.4
20260906022030 13 187 6.4 11.3 0.00 0.00 0.00 84 1026.4
20260906021029 13 189 6.4 9.7 0.00 0.00 0.00 84 1026.5
20260906020030 13 190 8.0 12.9 0.00 0.00 0.00 83 1026.4
20260906015030 13 202 8.0 12.9 0.00 0.00 0.00 83 1026.3
20260906014029 13 194 8.0 14.5 0.00 0.00 0.00 82 1026.3
20260906013030 13 194 6.4 14.5 0.00 0.00 0.00 82 1026.2
20260906012030 13 168 1.6 8.0 0.00 0.00 0.00 81 1026.2
20260906011029 13 179 3.2 9.7 0.00 0.00 0.00 81 1026.1
20260906010030 13 115 3.2 6.4 0.00 0.00 0.00 81 1026.1
20260906005029 13 117 1.6 4.8 0.00 0.00 0.00 81 1026.0
20260906004030 14 146 1.6 4.8 0.00 0.00 0.00 81 1026.0
20260906003030 14 181 4.8 9.7 0.00 0.00 0.00 80 1026.0
20260906002030 14 187 6.4 11.3 0.00 0.00 0.00 80 1026.3
20260906001030 14 186 8.0 14.5 0.00 0.00 0.00 79 1026.3
20260906000030 14 183 4.8 11.3 0.00 0.00 0.00 78 1026.2
20260905235030 15 187 6.4 11.3 0.00 0.00 0.00 78 1026.3
20260905234030 15 175 3.2 9.7 0.00 0.00 0.00 76 1026.2
20260905233030 15 164 3.2 11.3 0.00 0.00 0.00 77 1026.1
20260905232030 15 203 6.4 11.3 0.00 0.00 0.00 76 1026.2
20260905231030 16 210 6.4 12.9 0.00 0.00 0.00 75 1026.2
20260905230029 16 257 12.9 16.1 0.00 0.00 0.00 75 1026.0